[[{"header":{"parameterUnit":"m.s-1","parameterCategory":1,"la1":30.2992,"la2":30.254,"lo1":-89.0895,"lo2":-89.0443,"dy":0.0025,"dx":0.0025,"nx":19,"ny":19,"refTime":"2026-04-09T03:00:00:Z","depth":0,"parameterNumber":2,"parameterNumberName":"U-component_of_WINDS"},"data":[0,0,0,-3.7434,-3.7437,-3.7559,-3.7559,-3.776,-3.7762,0,0,0,0,0,0,0,0,0,0,0,-3.7423,-3.7425,-3.7434,-3.7438,-3.7559,-3.756,-3.7759,-3.7762,0,0,0,0,0,0,0,0,0,0,0,-3.7422,-3.7425,-3.7427,-3.7438,-3.7559,-3.756,-3.7759,-3.7652,0,0,0,0,0,0,0,0,0,0,-3.7526,-3.754,-3.7424,-3.7428,-3.7439,-3.7559,-3.756,-3.7646,-3.7658,-3.7723,0,-3.7785,0,-3.7777,-3.7778,-3.7779,0,0,0,-3.742,-3.753,-3.7539,-3.7428,-3.744,-3.7559,-3.7499,-3.7652,-3.7667,-3.774,-3.7787,-3.7794,-3.778,-3.7779,-3.7781,-3.8207,-3.821,0,0,-3.7413,-3.7459,-3.753,-3.755,-3.7531,-3.7496,-3.7503,-3.766,-3.7716,-3.7788,-3.7798,-3.7783,-3.7781,-3.7783,-3.8205,-3.8208,0,0,0,-3.7406,-3.7456,-3.746,-3.7543,-3.7561,-3.75,-3.7508,-3.7709,-3.7707,-3.78,-3.7786,-3.7782,-3.7785,-3.8201,-3.8206,-3.8391,0,0,0,-3.7401,-3.7451,-3.7458,-3.7488,-3.7559,-3.7636,-3.7555,-3.7696,-3.7712,-3.7785,-3.7782,-3.7788,-3.8198,-3.8204,-3.8379,-3.8472,0,0,0,-3.7407,-3.7451,-3.7477,-3.749,-3.7544,-3.7633,-3.7639,-3.7698,-3.7705,-3.7779,-3.7788,-3.8196,-3.8203,-3.8368,-3.8455,-3.8599,0,0,0,-3.7427,-3.7641,-3.7481,-3.7714,-3.7543,-3.7745,-3.7637,-3.7786,-3.7871,-3.7784,-3.8199,-3.8205,-3.8365,-3.8444,-3.8588,-3.873,-3.8793,0,0,-3.7723,-3.7679,-3.7812,-3.7672,-3.7914,-3.7723,-3.7992,-3.8028,-3.7994,-3.8139,-3.8148,-3.8383,-3.8453,-3.8597,-3.9126,-3.9176,0,0,0,-3.7922,-3.8019,-3.8073,-3.8155,-3.8185,-3.822,-3.8208,-3.8221,-3.8341,-3.8077,-3.8471,-3.8512,-3.8594,-3.866,-3.8703,-3.8772,-3.8237,-3.8236,-3.8236,-3.841,-3.8352,-3.857,-3.8527,-3.8608,-3.8593,-3.8654,-3.8669,-3.8589,-3.8683,-3.8727,-3.9055,-3.9134,-3.9165,-3.9238,-3.8795,-3.8796,-3.8796,-3.8797,-3.884,-3.8969,-3.8854,-3.9024,-3.8963,-3.9106,-3.91,-3.9038,-3.9163,-3.9017,-3.9087,-3.8935,-3.9222,-3.9283,-3.881,-3.8808,-3.8806,-3.8805,-3.8804,-3.9156,-3.9207,-3.9217,-3.9329,-3.9423,-3.9371,-3.9496,-3.9435,-3.9379,-3.9448,-3.9488,-3.9485,-3.9476,-3.947,-3.9472,-3.9473,-3.9474,-3.9475,-3.9475,-3.948,-3.9485,-3.9597,-3.9646,-3.969,-3.9741,-3.9727,-3.9769,-3.9801,-3.9747,-3.9747,-3.966,-3.926,-3.9162,-3.9493,-3.949,-3.9487,-3.9486,-3.9485,-3.9943,-3.9828,-4.0001,-4.0046,-4.0098,-4.0195,-4.0113,-4.0206,-4.0232,-4.0296,-4.0192,-3.9905,-3.9856,-3.9822,-3.9741,-4.0202,-4.0202,-4.0202,-4.0202,-4.0211,-4.0178,-4.0342,-4.0417,-4.0483,-4.0426,-4.0626,-4.0617,-4.059,-4.0604,-4.0527,-4.0413,-4.0381,-4.0351,-4.0305,-4.0229,-4.0804,-4.0804,-4.0805,-4.0493,-4.0464,-4.0646,-4.0615,-4.065,-4.0683,-4.0869,-4.0962,-4.0907,-4.0828,-4.0613,-4.0588,-4.0403,-4.0346,-4.0266,-4.0196,-4.0054,0,0]},{"header":{"parameterUnit":"m.s-1","parameterCategory":1,"la1":30.2992,"la2":30.254,"lo1":-89.0895,"lo2":-89.0443,"dy":0.0025,"dx":0.0025,"nx":19,"ny":19,"refTime":"2026-04-09T03:00:00:Z","depth":0,"parameterNumber":3,"parameterNumberName":"V-component_of_WINDS"},"data":[0,0,0,-1.3465,-1.3468,-1.3585,-1.3585,-1.3714,-1.3715,0,0,0,0,0,0,0,0,0,0,0,-1.3419,-1.342,-1.3465,-1.3468,-1.3585,-1.3585,-1.3713,-1.3715,0,0,0,0,0,0,0,0,0,0,0,-1.3419,-1.342,-1.3421,-1.3468,-1.3585,-1.3585,-1.3713,-1.3632,0,0,0,0,0,0,0,0,0,0,-1.3522,-1.3469,-1.342,-1.3421,-1.3469,-1.3584,-1.3585,-1.3628,-1.3637,-1.3652,0,-1.3664,0,-1.3691,-1.3722,-1.3722,0,0,0,-1.3475,-1.3462,-1.3504,-1.3421,-1.347,-1.3584,-1.3534,-1.3633,-1.3643,-1.3663,-1.3666,-1.3671,-1.3693,-1.3723,-1.3723,-1.3787,-1.3787,0,0,-1.3469,-1.3434,-1.3497,-1.3509,-1.3492,-1.353,-1.3538,-1.364,-1.364,-1.3667,-1.3675,-1.3696,-1.3723,-1.3724,-1.3788,-1.3787,0,0,0,-1.3445,-1.3429,-1.3469,-1.3504,-1.3526,-1.3533,-1.3542,-1.3635,-1.3651,-1.3676,-1.3697,-1.3724,-1.3725,-1.3788,-1.3788,-1.3751,0,0,0,-1.3442,-1.3416,-1.3466,-1.3446,-1.3524,-1.3583,-1.3535,-1.3644,-1.3657,-1.3696,-1.3724,-1.3726,-1.3788,-1.3788,-1.3752,-1.3739,0,0,0,-1.3416,-1.3413,-1.3426,-1.3443,-1.3493,-1.3582,-1.3604,-1.3648,-1.3669,-1.3722,-1.3727,-1.3788,-1.3788,-1.3753,-1.3741,-1.3745,0,0,0,-1.3377,-1.3391,-1.3425,-1.3448,-1.3492,-1.3559,-1.3604,-1.3655,-1.3697,-1.3725,-1.3788,-1.3788,-1.3754,-1.3742,-1.3746,-1.3742,-1.3737,0,0,-1.3375,-1.339,-1.3406,-1.344,-1.3492,-1.3544,-1.3591,-1.3661,-1.3697,-1.3755,-1.3757,-1.3752,-1.3741,-1.3745,-1.3725,-1.3721,0,0,0,-1.3394,-1.3405,-1.3427,-1.3465,-1.352,-1.3566,-1.3633,-1.3659,-1.371,-1.372,-1.3756,-1.3751,-1.3755,-1.3754,-1.3751,-1.3756,-1.3786,-1.3786,-1.3786,-1.334,-1.3387,-1.3417,-1.3477,-1.3514,-1.3584,-1.3617,-1.3664,-1.3699,-1.3707,-1.3724,-1.3706,-1.3704,-1.3702,-1.3707,-1.3726,-1.3726,-1.3726,-1.3726,-1.334,-1.3363,-1.3411,-1.3458,-1.3506,-1.3545,-1.3612,-1.3636,-1.3678,-1.3697,-1.3703,-1.3719,-1.3696,-1.3703,-1.3723,-1.3724,-1.3724,-1.3724,-1.3725,-1.3309,-1.3328,-1.3361,-1.3422,-1.3463,-1.3523,-1.3562,-1.3605,-1.3645,-1.3651,-1.3673,-1.3674,-1.3679,-1.3659,-1.3659,-1.3659,-1.3659,-1.3659,-1.3658,-1.3264,-1.3302,-1.333,-1.339,-1.342,-1.3465,-1.3535,-1.3565,-1.361,-1.3638,-1.3638,-1.3671,-1.3686,-1.3688,-1.3658,-1.3658,-1.3658,-1.3658,-1.3658,-1.3245,-1.3256,-1.3299,-1.333,-1.3403,-1.344,-1.3495,-1.3553,-1.3585,-1.3602,-1.3635,-1.3639,-1.3656,-1.3659,-1.3661,-1.3626,-1.3626,-1.3626,-1.3626,-1.3218,-1.3231,-1.3285,-1.3331,-1.338,-1.3434,-1.348,-1.3534,-1.3591,-1.3613,-1.3624,-1.3631,-1.3632,-1.3648,-1.3652,-1.3654,-1.3618,-1.3618,-1.3618,-1.3208,-1.3229,-1.326,-1.3317,-1.3378,-1.3428,-1.3472,-1.3521,-1.3588,-1.3618,-1.363,-1.3631,-1.3642,-1.3643,-1.3672,-1.3676,-1.3682,0,0]}]]